OBJECT AV, 57217

Orbit data source: Space-Track

You're viewing an Uncataloged Satellite

Recently launched and/or uncataloged satellites may have evolving metadata. Metadata may include but not limited to: Owner, Maufacturer, Bus, Motor, and Mission.

OBJECT AV, 57217 is a satellite in SSO that was launched on Tue, 27 Jun 2023 UTC via a SOYUZ-2-1B launch vehicle from the Vostochny Cosmodrome (VOSTO). Unknown objects in Earth's orbit typically refer to objects detected orbiting the Earth but have not yet been identified or cataloged. These objects could be anything from previously untracked satellites, spent rocket stages, debris from satellite collisions, or even natural meteoroids temporarily captured by Earth's gravity.

Loading next visibility...
Identifier
57217, 2023-091AV
Orbit
SSO
Country
Flag of TBDTBD
Related business
Flag of RUKuzbass State Technical University (KuzGTU) (RU)
Manufacturer
Sputniks
Mission
Operational Amateur Technology
Bus & Motor
CUBESAT 3U, Unknown motor
Mass
3.4 kg wet, 3.4 kg dry
Launch date (UTC)
2023-06-27 (2 years ago)
Launch vehicle
SOYUZ-2-1B
Launch site
Vostochny Cosmodrome (VOSTO)
Object type
Unknown
Shape & HBR
Box, 0.1 m
Radar Cross Section
0.035 m², Small (<0.1 m²)

Expand to show TLE details & history
Last TLE update: 7 hours ago

TLE from 7 hours ago
0 OBJECT AV
1 57217U 23091AV  25304.31737185  .00017748  00000-0  74624-3 0  9999
2 57217  97.5414   2.0659 0012776 176.6600 183.4725 15.23396291129457
Epoch: 2025-10-31T07:37Z
TLE epoch observation values (Epoch: 2025-10-31T07:37:00.927Z)
Latitude
0.00003°
Longitude
-152.0515°
Altitude
507.464 km
Speed
7.605 km/s
True Right ascension
00h 08m 15s
True Declination
0° 00' 00"
Sunlit
Object was in full shadow at epoch
Visualization orbit readout
Latitude
Unknown
Longitude
Unknown
Altitude
Unknown
Speed
Unknown
Apparent Right ascension
Unknown
Apparent Declination
Unknown
Sunlit
N/A
Visualization observer readout
Local Sidereal Time
10:16:02
Azimuth
Unknown
Elevation
Unknown
Doppler factor
Unknown
Orbital elements
Apogee altitude
501.35 km
Perigee altitude
483.794 km
Semi-major axis
6,870.709 km
Eccentricity
0.00128
Inclination
97.5414°
RAAN
2.0659°
Arg. of periapsis
176.66°
True anomaly
183.46365°
Mean anomaly
183.4725°
Eccentric anomaly
183.46807°
Mean motion
3.81102 °/min
Orbital period
94.46 mins
BSTAR
0.00074624
Loading maneuver chart data...
Computing Atmospheric mass density...
Loading historical data...
Loading historical data...
Loading historical data...
Loading historical data...
Loading historical data...
Loading historical data...
Loading historical data...

Documentation

Showing up to 5 results
|